Simultaneous Nadir Overpasses (SNOs) Predictions

Prediction of SNOs between AQUA and GOES-15 Satellite Orbit:

Table of predicted SNOs for the next 14.0 days since TLE Epoch: 9/24/2016
Index Date Time (AQUA) AQUA Lat,Lon GOES-15 Lat,Lon Distance(km) Time Diff (sec)
1 09/24/2016 10:31:20 -0.01,-134.06 0.30,-135.44 157.11 80
2 09/24/2016 22:52:44 -1.11,-139.25 -0.28,-135.42 436.22 80
3 09/26/2016 10:19:10 -0.60,-131.10 0.29,-135.42 490.31 80
4 09/26/2016 22:40:34 -0.46,-136.30 -0.28,-135.40 102.95 80
5 09/28/2016 22:28:23 0.14,-133.35 -0.28,-135.37 230.17 80
6 09/29/2016 10:49:39 0.95,-138.50 0.26,-135.39 355.03 80
7 10/01/2016 10:37:29 0.28,-135.56 0.26,-135.36 22.43 80
8 10/03/2016 10:25:18 -0.34,-132.60 0.26,-135.33 310.03 80
9 10/03/2016 22:46:42 -0.78,-137.79 -0.25,-135.29 284.65 80
10 10/05/2016 22:34:31 -0.15,-134.84 -0.25,-135.25 46.88 80
11 10/07/2016 22:22:20 0.48,-131.89 -0.25,-135.20 377.79 80




NCC Satellite Simultaneous Nadir Overpasses (SNOs) Prediction Service
